Regional Weather Roundup
Issued by NWS Charleston, SC

Current Version | Previous Version | Text Only | Print | Product List | Glossary Off
Versions: 1 2 3 4 5 6 7 8 9 10 11 12 13 14 15 16 17 18 19 20 21 22 23 24 25 26 27 28 29 30 31 32 33 34 35 36 37 38 39 40 41 42 43 44 45 46 47 48 49 50
000 ASUS42 KCHS 262127 RWRCHS REGIONAL WEATHER ROUNDUP NATIONAL WEATHER SERVICE CHARLESTON SC 500 PM EDT MON JUN 26 2017 NOTE: "FAIR" INDICATES FEW OR NO CLOUDS BELOW 12,000 FEET WITH NO SIGNIFICANT WEATHER AND/OR OBSTRUCTIONS TO VISIBILITY. NOT ALL STATIONS ARE QUALITY CONTROLLED. USE DATA WITH CAUTION... ESPECIALLY DEWPOINT OBSERVATIONS. SCZ027-030-031-034>040-042>050-262200- ...SOUTHEAST SOUTH CAROLINA... CITY SKY/WX TMP DP RH WIND PRES REMARKS N CHARLESTON PTSUNNY 84 64 50 NE6 30.03F WATERFRONT PRK N/A 83 71 66 E10 30.02F JOHNS ISLAND MOCLDY 82 70 65 E9 30.03F PINOPOLIS N/A 81 63 54 NE5 29.99F MONCKS CORNER FAIR 81 59 47 NW3 30.04F SUMMERVILLE FAIR 82 63 51 N8 30.05F BEAUFORT MCAS CLOUDY 84 71 65 NE7 30.03F BEAUFORT ARPT FAIR 81 72 74 E8 30.03F HILTON HEAD IS MOSUNNY 82 73 74 NE9 30.04F WALTERBORO CLEAR 82 64 54 E7 30.05F ALLENDALE FAIR 84 64 51 VRB3 30.04F ...SOUTHERN MIDLANDS AND PEE DEE... CITY SKY/WX TMP DP RH WIND PRES REMARKS GEORGETOWN FAIR 82 59 44 E8 30.04F KINGSTREE FAIR 82 55 39 E5 30.04F ORANGEBURG SUNNY 85 57 38 E5 30.05F BARNWELL FAIR 86 61 42 E5 30.05F AIKEN FAIR 82 55 39 N3 30.09F MANNING FAIR 84 63 48 NE3 30.04F COLUMBIA MOSUNNY 87 55 33 E3 30.04F SUMTER SUNNY 86 55 34 W5 30.03F FLORENCE MOSUNNY 86 54 33 CALM 30.05F MYRTLE BEACH NOT AVBL N MYRTLE BEACH CLOUDY 84 59 42 NE6 30.04F $$ GAZ063-065-086>088-099>101-113>116-118-119-134>141-150-262200- ...SOUTHEAST GEORGIA... CITY SKY/WX TMP DP RH WIND PRES REMARKS SAVANNAH ARPT CLOUDY 84 70 62 E12 30.03F HUNTER AAF LGT RAIN 79 75 89 CALM 30.00F FOG FORT STEWART CLOUDY 82 74 75 SE9 30.00S STATESBORO SUNNY 85 68 56 NE6 30.05S SYLVANIA PTCLDY 85 70 60 E6 30.06S CLAXTON FAIR 84 70 62 N6 30.03F ...CSRA...CENTRAL AND FAR SOUTHEAST GEORGIA... CITY SKY/WX TMP DP RH WIND PRES REMARKS THOMSON SUNNY 85 56 36 NE5 30.11F AUGUSTA-BUSH SUNNY 89 57 33 NE6 30.04F AUGUSTA-DANIEL SUNNY 88 55 32 VRB3 30.06F SWAINSBORO FAIR 86 61 42 E7 30.06F VIDALIA MOSUNNY 84 70 61 N7 30.04S EASTMAN FAIR 88 52 29 NE8G16 30.06F HAZLEHURST FAIR 89 72 57 N10 30.00F HX 95 ALMA CLOUDY 87 71 58 VRB5 30.00F HX 93 WAYCROSS CLOUDY 89 76 64 E6 30.00F HX 100 JESUP CLOUDY 75 70 83 SE7 30.03S BAXLEY FAIR 90 75 62 NE8 30.01F HX 100 BRUNSWICK CLOUDY 79 77 94 E7 30.03F SAINT SIMONS CLOUDY 77 74 90 NE8 30.02F $$ SCZ027-028-034-036>038-045-046-048>050-GAZ119-141-262200- ...LAKE AND SUPPLEMENTAL COASTAL OBSERVATIONS... STATION/POSITION TIME TEMP WIND PRES WAVE SWELL AIR SEA DIR/SP/G HT/PER HT/PER/DIR (UTC) (F) (DEG/KT/KT) (MB) (FT/S) (FT/S/D) WINYAH BAY 2045 80 70/ 8 1017.0F LAKE MURRAY 2030 84 130/ 3/ 4 1016.9F ACE BASIN NERRS 2045 84 60/ 3 1017.0F FORT PULASKI 2100 81 84 90/ 16/ 19 1017.1 SAPELO ISLAND 2100 78 CALM 1017.0 $$ ANZ835-935-AMZ111-154-330-350-352-354-370-450-454-472-262200- ...C-MAN AND BUOY OBSERVATIONS... STATION/POSITION TIME TEMP WIND PRES WAVE SWELL AIR SEA DIR/SP/G HT/PER HT/PER/DIR (UTC) (F) (DEG/KT/KT) (MB) (FT/S) (FT/S/D) BUOY 41004 2110 78 81 30/ 12/ 14 1016.6 BUOY 41008 2050 79 83 60/ 8/ 10 1016.7F 2/ 8 2/110/ 8 FOLLY BEACH CMAN 2100 81 70/ 15/ 17 1017.6F CAPERS NEARSHORE 2108 85 83 70/ 12/ 16 1016.9F FRIPP NEARSHORE 2108 81 83 70/ 16/ 19 1016.6F STATION/POSITION TIME TEMP WIND PRES WAVE SWELL AIR SEA DIR/SP/G HT/PER HT/PER/DIR (UTC) (F) (DEG/KT/KT) (MB) (FT/S) (FT/S/D) 5E ST. MARYS GA 2100 81 N/A 2/ 3 FRYING PAN BUOY 2110 78 81 20/ 10/ 12 1016.6 BUOY 41025 2050 78 81 30/ 6/ 8 1017.2F 2/ 7 2/130/ 7 CAPE LOOKOUT NC 2100 79 90/ 5/ 5 1016.9F BUOY 41002 2050 77 80 360/ 6/ 8 1017.5F 3/ 5 3/270/ 5 BUOY 41010 2110 83 84 210/ 4/ 6 1016.6 ST AUGUSTINE FL 2100 78 80 200/ 9/ 10 1016.2F $$

USA.gov is the U.S. government's official web portal to all federal, state and local government web resources and services.